This is the latest recevied weather packets stored in our database for station/object KE8WMS. If no packets are shown the sender has not sent any weather packets the latest 10 day(s).
| Time | Temp. | Humidity | Pressure | Rain* | Wind** | Luminosity | Snow |
|---|---|---|---|---|---|---|---|
| 1787929749 | 22.22° C | 72% | 1017.2 hPa | 0 mm | - | 566 W/m² | - |
| 1787929444 | 22.22° C | 69% | 1017.3 hPa | 0 mm | - | 561 W/m² | - |
| 1787929142 | 22.22° C | 72% | 1017.2 hPa | 0 mm | - | 557 W/m² | - |
| 1787928837 | 22.22° C | 71% | 1017 hPa | 0 mm | - | 569 W/m² | - |
| 1787928536 | 22.78° C | 72% | 1017.3 hPa | 0 mm | - | 593 W/m² | - |
| 1787928236 | 22.22° C | 74% | 1017 hPa | 0 mm | - | 521 W/m² | - |
| 1787927934 | 21.67° C | 74% | 1017.5 hPa | 0 mm | - | 506 W/m² | - |
| 1787927629 | 21.67° C | 73% | 1017.1 hPa | 0 mm | - | 489 W/m² | - |
| 1787927324 | 21.67° C | 75% | 1017 hPa | 0 mm | - | 470 W/m² | - |
| 1787927021 | 22.22° C | 74% | 1016.9 hPa | 0 mm | - | 267 W/m² | - |
| 1787926720 | 22.22° C | 75% | 1016.8 hPa | 0 mm | - | 349 W/m² | - |
| 1787926419 | 21.67° C | 75% | 1017 hPa | 0 mm | - | 507 W/m² | - |
| 1787926113 | 21.11° C | 76% | 1016.5 hPa | 0 mm | - | 447 W/m² | - |
| 1787925813 | 21.11° C | 77% | 1016.7 hPa | 0 mm | - | 416 W/m² | - |
| 1787925512 | 21.11° C | 78% | 1016.5 hPa | 0 mm | - | 263 W/m² | - |
| 1787925207 | 21.11° C | 76% | 1016.7 hPa | 0 mm | - | 199 W/m² | - |
| 1787924906 | 21.11° C | 78% | 1016.7 hPa | 0 mm | - | 181 W/m² | - |
| 1787924601 | 21.11° C | 78% | 1016.3 hPa | 0 mm | - | 163 W/m² | - |
| 1787924296 | 21.11° C | 77% | 1016.5 hPa | 0 mm | - | 151 W/m² | - |
| 1787923991 | 21.11° C | 78% | 1016.5 hPa | 0 mm | - | 160 W/m² | - |
| 1787923691 | 21.11° C | 77% | 1016.2 hPa | 0 mm | - | 149 W/m² | - |
| 1787923386 | 21.11° C | 78% | 1016.5 hPa | 0 mm | - | 133 W/m² | - |
| 1787923081 | 20.56° C | 77% | 1016.1 hPa | 0 mm | - | 147 W/m² | - |
| 1787922776 | 20.56° C | 79% | 1016.2 hPa | 0 mm | - | 143 W/m² | - |
| 1787922475 | 20.56° C | 78% | 1016.2 hPa | 0 mm | - | 101 W/m² | - |
* Rain latest hour (hover to see other rain measurements)
** Current wind speed in m/s (hover to see current wind gust speed)